Location: *
(49.5667°N, 1.3667°W)
Time: 15:57:43
(UTC+00:00)

ARGOS - Pass Details

Date: 20 September 2019
Orbit: 821 x 834 km, 98.5° (Epoch: 14 October)

Event Time Altitude Azimuth Distance (km) Brightness Sun altitude
Exits shadow 20:16:38 18° 177° (S) 1,895 4.7 -20.7°
Maximum altitude 20:20:36 68° 258° (WSW) 891 3.4 -21.3°
Drops below altitude 10° 20:26:00 10° 341° (NNW) 2,443 6.2 -22.1°
Sets 20:28:23 0° 344° (NNW) 3,383 7.0 -22.4°
